OK,32,99,980,32,2014-10-01T01:40:00,0,28072750,190717
OK,32,99,980,32,2014-10-01T01:45:00,0,28073197,190717
OK,32,99,980,32,2014-10-01T01:50:00,0,28073645,190717
OK,32,99,980,32,2014-10-01T01:55:00,0,28073963,190717
OK,32,99,980,32,2014-10-01T02:00:00,0,28074412,190717
OK,32,99,980,32,2014-10-01T02:05:00,0,28074852,190717
OK,39,81,980,39,2014-10-01T02:10:00,1,28075301,190717
OK,39,81,980,39,2014-10-01T02:15:00,1,28075750,190717
OK,39,81,980,39,2014-10-01T02:20:00,0,28076133,190717
OK,39,81,980,39,2014-10-01T02:25:00,0,28076582,190717
OK,39,81,980,39,2014-10-01T02:30:00,0,28077031,190717
OK,39,81,980,39,2014-10-01T02:35:00,0,28077480,190717
OK,39,81,980,39,2014-10-01T02:40:00,0,28077883,190717
OK,39,81,980,39,2014-10-01T02:45:00,0,28078332,190717
OK,39,81,980,39,2014-10-01T02:50:00,0,28078777,190717
OK,39,81,980,39,2014-10-01T02:55:00,0,28079226,190717
OK,39,81,980,39,2014-10-01T03:00:00,0,28079668,190717
OK,39,81,980,39,2014-10-01T03:05:00,0,28080117,190717
OK,39,81,980,39,2014-10-01T03:10:00,0,28080451,190717
OK,39,81,980,39,2014-10-01T03:15:00,0,28080900,190717
OK,39,81,980,39,2014-10-01T03:20:00,0,28081349,190717
OK,39,81,980,39,2014-10-01T03:25:00,0,28081796,190717
OK,39,81,980,39,2014-10-01T03:30:00,0,28082245,190717
OK,54,58,980,54,2014-10-01T03:35:00,2,28082678,190717
OK,61,52,980,61,2014-10-01T03:40:00,4,28083110,190717
OK,61,52,980,61,2014-10-01T03:45:00,2,28083559,190717
OK,42,75,980,42,2014-10-01T03:50:00,1,28084008,190717
OK,34,93,980,34,2014-10-01T03:55:00,1,28084449,190717
OK,39,81,980,39,2014-10-01T04:00:00,2,28084874,190717
OK,49,64,980,49,2014-10-01T04:05:00,3,28085323,190717
OK,48,66,980,48,2014-10-01T04:10:00,4,28085768,190717
OK,42,75,980,42,2014-10-01T04:15:00,2,28086217,190717
OK,42,75,980,42,2014-10-01T04:20:00,3,28086659,190717
OK,39,81,980,39,2014-10-01T04:25:00,2,28087108,190717
OK,36,88,980,36,2014-10-01T04:30:00,1,28087553,190717
OK,39,81,980,39,2014-10-01T04:35:00,2,28088002,190717
OK,57,55,980,57,2014-10-01T04:40:00,6,28088426,190717
OK,57,55,980,57,2014-10-01T04:45:00,6,28088875,190717
OK,54,58,980,54,2014-10-01T04:50:00,4,28089305,190717
OK,48,66,980,48,2014-10-01T04:55:00,7,28089754,190717
OK,48,66,980,48,2014-10-01T05:00:00,6,28090203,190717
OK,68,46,980,68,2014-10-01T05:05:00,5,28090547,190717
OK,54,58,980,54,2014-10-01T05:10:00,4,28090996,190717
OK,45,70,980,45,2014-10-01T05:15:00,6,28091445,190717
OK,46,69,980,46,2014-10-01T05:20:00,6,28091862,190717
OK,58,54,980,58,2014-10-01T05:25:00,9,28092311,190717
OK,56,56,980,56,2014-10-01T05:30:00,15,28092755,190717
OK,55,57,980,55,2014-10-01T05:35:00,15,28093196,190717
OK,46,69,980,46,2014-10-01T05:40:00,16,28093627,190717
OK,47,67,980,47,2014-10-01T05:45:00,14,28094076,190717
OK,75,42,980,75,2014-10-01T05:50:00,12,28094487,190717
OK,61,52,980,61,2014-10-01T05:55:00,15,28094932,190717
OK,54,58,980,54,2014-10-01T06:00:00,11,28095379,190717
OK,57,55,980,57,2014-10-01T06:05:00,8,28095828,190717
OK,50,63,980,50,2014-10-01T06:10:00,7,28096241,190717
OK,57,55,980,57,2014-10-01T06:15:00,7,28096690,190717
OK,45,70,980,45,2014-10-01T06:20:00,5,28097124,190717
OK,45,70,980,45,2014-10-01T06:25:00,4,28097573,190717
OK,45,70,980,45,2014-10-01T06:30:00,9,28098022,190717
OK,43,73,980,43,2014-10-01T06:35:00,6,28098459,190717
OK,42,75,980,42,2014-10-01T06:40:00,1,28098903,190717
OK,64,49,980,64,2014-10-01T06:45:00,7,28099351,190717
OK,63,50,980,63,2014-10-01T06:50:00,7,28099694,190717
OK,50,63,980,50,2014-10-01T06:55:00,7,28100143,190717
OK,49,64,980,49,2014-10-01T07:00:00,8,28100450,190717
OK,42,75,980,42,2014-10-01T07:05:00,8,28100899,190717
OK,39,81,980,39,2014-10-01T07:10:00,7,28101270,190717
OK,46,69,980,46,2014-10-01T07:15:00,11,28101719,190717
OK,46,69,980,46,2014-10-01T07:20:00,16,28102155,190717
OK,51,62,980,51,2014-10-01T07:25:00,11,28102604,190717
OK,54,58,980,54,2014-10-01T07:30:00,10,28103032,190717
OK,57,55,980,57,2014-10-01T07:35:00,10,28103478,190717
OK,63,50,980,63,2014-10-01T07:40:00,12,28103923,190717
OK,63,50,980,63,2014-10-01T07:45:00,10,28104368,190717
OK,60,52,980,60,2014-10-01T07:50:00,6,28104809,190717
OK,45,70,980,45,2014-10-01T07:55:00,9,28105254,190717
OK,50,63,980,50,2014-10-01T08:00:00,11,28105694,190717
OK,50,63,980,50,2014-10-01T08:05:00,11,28106143,190717
OK,51,62,980,51,2014-10-01T08:10:00,13,28106580,190717
OK,51,62,980,51,2014-10-01T08:15:00,11,28106986,190717
OK,53,59,980,53,2014-10-01T08:20:00,9,28107418,190717
OK,62,51,980,62,2014-10-01T08:25:00,6,28107867,190717
OK,57,55,980,57,2014-10-01T08:30:00,2,28108306,190717
OK,52,61,980,52,2014-10-01T08:35:00,8,28108755,190717
OK,55,57,980,55,2014-10-01T08:40:00,8,28109183,190717
OK,61,52,980,61,2014-10-01T08:45:00,6,28109632,190717
OK,58,54,980,58,2014-10-01T08:50:00,9,28109975,190717
OK,58,54,980,58,2014-10-01T08:55:00,11,28110424,190717
OK,46,69,980,46,2014-10-01T09:00:00,9,28110847,190717
OK,43,73,980,43,2014-10-01T09:05:00,8,28111296,190717
OK,44,72,980,44,2014-10-01T09:10:00,10,28111725,190717
OK,67,47,980,67,2014-10-01T09:15:00,6,28112174,190717
OK,57,55,980,57,2014-10-01T09:20:00,6,28112515,190717
OK,62,51,980,62,2014-10-01T09:25:00,7,28112964,190717
OK,60,52,980,60,2014-10-01T09:30:00,15,28113388,190717
OK,60,52,980,60,2014-10-01T09:35:00,19,28113837,190717
OK,76,41,980,76,2014-10-01T09:40:00,7,28114269,190717
OK,71,44,980,71,2014-10-01T09:45:00,3,28114718,190717
OK,64,49,980,64,2014-10-01T09:50:00,11,28115072,190717
OK,74,42,980,74,2014-10-01T09:55:00,14,28115521,190717
OK,61,52,980,61,2014-10-01T10:00:00,11,28115933,190717
OK,47,67,980,47,2014-10-01T10:05:00,13,28116382,190717
OK,49,64,980,49,2014-10-01T10:10:00,15,28116790,190717
OK,53,59,980,53,2014-10-01T10:15:00,10,28117239,190717
OK,50,63,980,50,2014-10-01T10:20:00,10,28117664,190717
OK,60,52,980,60,2014-10-01T10:25:00,15,28118113,190717
OK,53,59,980,53,2014-10-01T10:30:00,19,28118558,190717
OK,47,67,980,47,2014-10-01T10:35:00,12,28119005,190717
OK,66,48,980,66,2014-10-01T10:40:00,16,28119449,190717
OK,56,56,980,56,2014-10-01T10:45:00,18,28119897,190717
OK,50,63,980,50,2014-10-01T10:50:00,12,28120345,190717
OK,52,61,980,52,2014-10-01T10:55:00,13,28120794,190717
OK,52,61,980,52,2014-10-01T11:00:00,15,28121177,190717
OK,60,52,980,60,2014-10-01T11:05:00,11,28121626,190717
OK,70,45,980,70,2014-10-01T11:10:00,14,28122064,190717
OK,70,45,980,70,2014-10-01T11:15:00,16,28122513,190717
OK,69,46,980,69,2014-10-01T11:20:00,9,28122954,190717
OK,69,46,980,69,2014-10-01T11:25:00,13,28123403,190717
OK,67,47,980,67,2014-10-01T11:30:00,19,28123835,190717
OK,62,51,980,62,2014-10-01T11:35:00,18,28124284,190717
OK,60,52,980,60,2014-10-01T11:40:00,12,28124686,190717
OK,77,41,980,77,2014-10-01T11:45:00,9,28125135,190717
OK,65,48,980,65,2014-10-01T11:50:00,14,28125564,190717
OK,60,52,980,60,2014-10-01T11:55:00,12,28126013,190717
OK,55,57,980,55,2014-10-01T12:00:00,10,28126365,190717
OK,59,53,980,59,2014-10-01T12:05:00,13,28126814,190717
OK,50,63,980,50,2014-10-01T12:10:00,15,28127263,190717
OK,50,63,980,50,2014-10-01T12:15:00,11,28127712,190717
OK,59,53,980,59,2014-10-01T12:20:00,12,28128140,190717
OK,54,58,980,54,2014-10-01T12:25:00,18,28128589,190717
OK,54,58,980,54,2014-10-01T12:30:00,22,28129024,190717
OK,59,53,980,59,2014-10-01T12:35:00,22,28129473,190717
OK,45,70,980,45,2014-10-01T12:40:00,16,28129907,190717
OK,56,56,980,56,2014-10-01T12:45:00,12,28130356,190717
OK,63,50,980,63,2014-10-01T12:50:00,19,28130784,190717
OK,68,46,980,68,2014-10-01T12:55:00,24,28131233,190717
OK,69,46,980,69,2014-10-01T13:00:00,22,28131670,190717
OK,64,49,980,64,2014-10-01T13:05:00,16,28132119,190717
OK,60,52,980,60,2014-10-01T13:10:00,23,28132557,190717
OK,48,66,980,48,2014-10-01T13:15:00,21,28133004,190717
OK,52,61,980,52,2014-10-01T13:20:00,15,28133442,190717
OK,69,46,980,69,2014-10-01T13:25:00,25,28133891,190717
OK,73,43,980,73,2014-10-01T13:30:00,35,28134330,190717
OK,82,38,980,82,2014-10-01T13:35:00,36,28134779,190717
OK,73,43,980,73,2014-10-01T13:40:00,28,28135198,190717
OK,66,48,980,66,2014-10-01T13:45:00,16,28135647,190717
OK,65,48,980,65,2014-10-01T13:50:00,20,28136084,190717
OK,56,56,980,56,2014-10-01T13:55:00,25,28136533,190717
OK,64,49,980,64,2014-10-01T14:00:00,19,28136973,190717
OK,67,47,980,67,2014-10-01T14:05:00,8,28137422,190717
OK,70,45,980,70,2014-10-01T14:10:00,25,28137856,190717
OK,66,48,980,66,2014-10-01T14:15:00,24,28138305,190717
OK,63,50,980,63,2014-10-01T14:20:00,18,28138733,190717
OK,53,59,980,53,2014-10-01T14:25:00,16,28139182,190717
OK,59,53,980,59,2014-10-01T14:30:00,22,28139593,190717
OK,58,54,980,58,2014-10-01T14:35:00,24,28140042,190717
OK,54,58,980,54,2014-10-01T14:40:00,24,28140484,190717
OK,61,52,980,61,2014-10-01T14:45:00,25,28140933,190717
OK,61,52,980,61,2014-10-01T14:50:00,24,28141359,190717
OK,54,58,980,54,2014-10-01T14:55:00,20,28141808,190717
OK,48,66,980,48,2014-10-01T15:00:00,13,28142236,190717
OK,41,77,980,41,2014-10-01T15:05:00,16,28142685,190717
OK,55,57,980,55,2014-10-01T15:10:00,14,28143112,190717
OK,74,42,980,74,2014-10-01T15:15:00,16,28143561,190717
OK,49,64,980,49,2014-10-01T15:20:00,27,28144009,190717
OK,48,66,980,48,2014-10-01T15:25:00,27,28144458,190717
OK,51,62,980,51,2014-10-01T15:30:00,26,28144879,190717
OK,52,61,980,52,2014-10-01T15:35:00,29,28145293,190717
OK,49,64,980,49,2014-10-01T15:40:00,22,28145742,190717
OK,50,63,980,50,2014-10-01T15:45:00,18,28146191,190717
OK,54,58,980,54,2014-10-01T15:50:00,18,28146640,190717
OK,45,70,980,45,2014-10-01T15:55:00,13,28147048,190717
OK,44,72,980,44,2014-10-01T16:00:00,11,28147492,190717
OK,47,67,980,47,2014-10-01T16:05:00,15,28147941,190717
OK,51,62,980,51,2014-10-01T16:10:00,11,28148342,190717
OK,47,67,980,47,2014-10-01T16:15:00,8,28148791,190717
OK,50,63,980,50,2014-10-01T16:20:00,11,28149230,190717
OK,47,67,980,47,2014-10-01T16:25:00,9,28149679,190717
OK,43,73,980,43,2014-10-01T16:30:00,6,28150105,190717
OK,53,59,980,53,2014-10-01T16:35:00,3,28150554,190717
OK,50,63,980,50,2014-10-01T16:40:00,8,28150972,190717
OK,44,72,980,44,2014-10-01T16:45:00,9,28151421,190717
OK,65,48,980,65,2014-10-01T16:50:00,5,28151870,190717
OK,48,66,980,48,2014-10-01T17:00:00,8,28152319,190717
OK,41,77,980,41,2014-10-01T17:05:00,10,28152765,190717
OK,71,44,980,71,2014-10-01T17:10:00,7,28153212,190717
OK,65,48,980,65,2014-10-01T17:15:00,7,28153661,190717
OK,54,58,980,54,2014-10-01T17:20:00,8,28154071,190717
OK,56,56,980,56,2014-10-01T17:25:00,8,28154520,190717
OK,49,64,980,49,2014-10-01T17:30:00,6,28154962,190717
OK,52,61,980,52,2014-10-01T17:35:00,1,28155410,190717
OK,49,64,980,49,2014-10-01T17:40:00,3,28155828,190717
OK,47,67,980,47,2014-10-01T17:45:00,4,28156277,190717
OK,55,57,980,55,2014-10-01T17:50:00,5,28156725,190717
OK,55,57,980,55,2014-10-01T17:55:00,3,28157164,190717
OK,65,48,980,65,2014-10-01T18:00:00,3,28157594,190717
OK,42,75,980,42,2014-10-01T18:05:00,4,28158042,190717
OK,47,67,980,47,2014-10-01T18:10:00,4,28158486,190717
OK,47,67,980,47,2014-10-01T18:15:00,4,28158932,190717
OK,38,83,980,38,2014-10-01T18:20:00,10,28159378,190717
OK,44,72,980,44,2014-10-01T18:25:00,7,28159713,190717
OK,57,55,980,57,2014-10-01T18:30:00,3,28160162,190717
OK,50,63,980,50,2014-10-01T18:35:00,8,28160611,190717
OK,52,61,980,52,2014-10-01T18:40:00,7,28161049,190717
OK,49,64,980,49,2014-10-01T18:45:00,3,28161498,190717
OK,58,54,980,58,2014-10-01T18:50:00,2,28161915,190717
OK,45,70,980,45,2014-10-01T18:55:00,5,28162364,190717
OK,45,70,980,45,2014-10-01T19:00:00,5,28162758,190717
OK,43,73,980,43,2014-10-01T19:05:00,5,28163197,190717
OK,59,53,980,59,2014-10-01T19:10:00,6,28163645,190717
OK,51,62,980,51,2014-10-01T19:15:00,7,28164094,190717
OK,52,61,980,52,2014-10-01T19:20:00,9,28164525,190717
OK,57,55,980,57,2014-10-01T19:25:00,11,28164974,190717
OK,47,67,980,47,2014-10-01T19:30:00,6,28165399,190717
OK,40,79,980,40,2014-10-01T19:35:00,3,28165847,190717
OK,45,70,980,45,2014-10-01T19:40:00,6,28166288,190717
OK,47,67,980,47,2014-10-01T19:45:00,9,28166650,190717
OK,43,73,980,43,2014-10-01T19:50:00,9,28167099,190717
OK,40,79,980,40,2014-10-01T19:55:00,10,28167528,190717
OK,42,75,980,42,2014-10-01T20:00:00,7,28167961,190717
OK,44,72,980,44,2014-10-01T20:05:00,11,28168410,190717
OK,43,73,980,43,2014-10-01T20:10:00,7,28168855,190717
OK,44,72,980,44,2014-10-01T20:15:00,8,28169304,190717
OK,45,70,980,45,2014-10-01T20:20:00,5,28169752,190717
OK,41,77,980,41,2014-10-01T20:25:00,3,28170178,190717
OK,41,77,980,41,2014-10-01T20:30:00,5,28170623,190717
OK,40,79,980,40,2014-10-01T20:35:00,4,28171071,190717
OK,32,99,980,32,2014-10-01T20:40:00,0,28171508,190717
OK,75,42,980,75,2014-10-01T20:45:00,1,28171954,190717
OK,75,42,980,75,2014-10-01T20:50:00,1,28172402,190717
OK,42,75,980,42,2014-10-01T20:55:00,1,28172848,190717
OK,36,88,980,36,2014-10-01T21:00:00,1,28173294,190717
OK,60,52,980,60,2014-10-01T21:05:00,2,28173743,190717
OK,60,52,980,60,2014-10-01T21:10:00,4,28174184,190717
OK,41,77,980,41,2014-10-01T21:15:00,3,28174633,190717
OK,49,64,980,49,2014-10-01T21:20:00,1,28175059,190717
OK,41,77,980,41,2014-10-01T21:25:00,1,28175455,190717
OK,48,66,980,48,2014-10-01T21:30:00,1,28175904,190717
OK,48,66,980,48,2014-10-01T21:35:00,0,28176353,190717
OK,44,72,980,44,2014-10-01T21:40:00,1,28176802,190717
OK,44,72,980,44,2014-10-01T21:45:00,1,28177158,190717
OK,44,72,980,44,2014-10-01T21:50:00,0,28177598,190717
OK,44,72,980,44,2014-10-01T21:55:00,0,28178044,190717
OK,44,72,980,44,2014-10-01T22:00:00,0,28178493,190717
OK,44,72,980,44,2014-10-01T22:05:00,0,28178940,190717
OK,44,72,980,44,2014-10-01T22:10:00,0,28179374,190717
OK,40,79,980,40,2014-10-01T22:15:00,2,28179817,190717
OK,59,53,980,59,2014-10-01T22:20:00,2,28180264,190717
OK,54,58,980,54,2014-10-01T22:25:00,0,28180662,190717
OK,54,58,980,54,2014-10-01T22:30:00,0,28181111,190717
OK,54,58,980,54,2014-10-01T22:35:00,0,28181535,190717
OK,54,58,980,54,2014-10-01T22:40:00,0,28181983,190717
OK,34,93,980,34,2014-10-01T22:45:00,0,28182430,190717
OK,34,93,980,34,2014-10-01T22:50:00,0,28182879,190717
OK,34,93,980,34,2014-10-01T22:55:00,0,28183296,190717
OK,34,93,980,34,2014-10-01T23:00:00,0,28183729,190717
OK,37,85,980,37,2014-10-01T23:05:00,2,28184174,190717
OK,32,99,980,32,2014-10-01T23:10:00,1,28184623,190717
OK,32,99,980,32,2014-10-01T23:15:00,0,28185058,190717
OK,32,99,980,32,2014-10-01T23:20:00,0,28185506,190717
OK,32,99,980,32,2014-10-01T23:25:00,0,28185937,190717
OK,32,99,980,32,2014-10-01T23:30:00,0,28186329,190717
OK,32,99,980,32,2014-10-01T23:40:00,0,28187176,190717
OK,32,99,980,32,2014-10-01T23:55:00,0,28188508,190717
OK,32,99,980,32,2014-10-02T00:05:00,0,28189393,190717
OK,32,99,980,32,2014-10-02T00:10:00,0,28189815,190717
OK,32,99,980,32,2014-10-02T00:15:00,0,28190264,190717
OK,32,99,980,32,2014-10-02T00:20:00,0,28190617,190717
OK,32,99,980,32,2014-10-02T00:30:00,0,28191515,190717
OK,74,42,980,74,2014-10-02T00:35:00,0,28191821,190717
OK,74,42,980,74,2014-10-02T00:40:00,0,28192270,190717
OK,74,42,980,74,2014-10-02T00:45:00,0,28192703,190717
OK,74,42,980,74,2014-10-02T00:50:00,0,28193147,190717
OK,74,42,980,74,2014-10-02T00:55:00,0,28193514,190717
OK,74,42,980,74,2014-10-02T01:05:00,0,28194412,190717
OK,74,42,980,74,2014-10-02T01:10:00,0,28194861,190717
OK,74,42,980,74,2014-10-02T01:15:00,0,28195097,190717
OK,74,42,980,74,2014-10-02T01:25:00,0,28195995,190717
OK,74,42,980,74,2014-10-02T01:30:00,0,28196280,190717
OK,74,42,980,74,2014-10-02T01:35:00,0,28196728,190717
OK,74,42,980,74,2014-10-02T01:40:00,0,28197151,190717
OK,74,42,980,74,2014-10-02T01:45:00,0,28197600,190717
OK,74,42,980,74,2014-10-02T01:50:00,0,28198048,190717
OK,74,42,980,74,2014-10-02T01:55:00,0,28198496,190717
OK,74,42,980,74,2014-10-02T02:00:00,0,28198945,190717
OK,74,42,980,74,2014-10-02T02:05:00,0,28199317,190717
OK,74,42,980,74,2014-10-02T02:10:00,0,28199759,190717
OK,31,102,980,31,2014-10-02T02:15:00,1,28200201,190717
OK,31,102,980,31,2014-10-02T02:20:00,0,28200644,190717
OK,31,102,980,31,2014-10-02T02:25:00,0,28201093,190717
OK,31,102,980,31,2014-10-02T02:30:00,0,28201524,190717
OK,31,102,980,31,2014-10-02T02:45:00,0,28202422,190717
OK,31,102,980,31,2014-10-02T02:50:00,0,28202864,190717
OK,31,102,980,31,2014-10-02T02:55:00,0,28203312,190717
OK,31,102,980,31,2014-10-02T03:00:00,0,28203747,190717
OK,31,102,980,31,2014-10-02T03:10:00,0,28204196,190717
OK,38,83,980,38,2014-10-02T03:25:00,1,28204645,190717
OK,38,83,980,38,2014-10-02T03:30:00,1,28205094,190717
OK,38,83,980,38,2014-10-02T03:35:00,0,28205522,190717
OK,38,83,980,38,2014-10-02T03:40:00,0,28205969,190717
OK,36,88,980,36,2014-10-02T03:45:00,1,28206352,190717
OK,36,88,980,36,2014-10-02T03:55:00,0,28207250,190717
OK,36,88,980,36,2014-10-02T04:00:00,0,28207670,190717
OK,36,88,980,36,2014-10-02T04:05:00,0,28208118,190717
OK,42,75,980,42,2014-10-02T04:10:00,1,28208545,190717
OK,42,75,980,42,2014-10-02T04:15:00,0,28208994,190717
OK,44,72,980,44,2014-10-02T04:20:00,1,28209432,190717
OK,44,72,980,44,2014-10-02T04:25:00,1,28209881,190717
OK,43,73,980,43,2014-10-02T04:30:00,3,28210304,190717
OK,38,83,980,38,2014-10-02T04:35:00,0,28210753,190717
OK,52,61,980,52,2014-10-02T04:40:00,2,28211178,190717
OK,57,55,980,57,2014-10-02T04:45:00,1,28211622,190717
OK,57,55,980,57,2014-10-02T04:50:00,0,28212000,190717
OK,45,70,980,45,2014-10-02T04:55:00,0,28212449,190717
OK,45,70,980,45,2014-10-02T05:00:00,0,28212878,190717
OK,66,48,980,66,2014-10-02T05:05:00,2,28213327,190717
OK,51,62,980,51,2014-10-02T05:10:00,0,28213765,190717
OK,114,27,980,114,2014-10-02T05:15:00,6,28214214,190717
OK,159,19,980,159,2014-10-02T05:20:00,3,28214627,190717
OK,59,53,980,59,2014-10-02T05:25:00,9,28215076,190717
OK,73,43,980,73,2014-10-02T05:30:00,2,28215492,190717
OK,69,46,980,69,2014-10-02T05:35:00,0,28215941,190717
OK,44,72,980,44,2014-10-02T05:40:00,14,28216280,190717
OK,45,70,980,45,2014-10-02T05:45:00,9,28216720,190717
OK,42,75,980,42,2014-10-02T05:50:00,0,28217167,190717
OK,53,59,980,53,2014-10-02T05:55:00,12,28217616,190717
OK,49,64,980,49,2014-10-02T06:00:00,10,28218055,190717
OK,73,43,980,73,2014-10-02T06:05:00,11,28218504,190717
OK,75,42,980,75,2014-10-02T06:10:00,7,28218924,190717
OK,47,67,980,47,2014-10-02T06:15:00,12,28219373,190717
OK,68,46,980,68,2014-10-02T06:20:00,4,28219746,190717
OK,74,42,980,74,2014-10-02T06:25:00,4,28220195,190717
OK,61,52,980,61,2014-10-02T06:30:00,12,28220629,190717
OK,46,69,980,46,2014-10-02T06:35:00,11,28221078,190717
OK,44,72,980,44,2014-10-02T06:40:00,9,28221459,190717
OK,43,73,980,43,2014-10-02T06:45:00,7,28221745,190717
OK,44,72,980,44,2014-10-02T07:00:00,11,28222339,190717
OK,40,79,980,40,2014-10-02T07:05:00,5,28222788,190717
OK,51,62,980,51,2014-10-02T07:10:00,4,28223219,190717
OK,64,49,980,64,2014-10-02T07:15:00,2,28223654,190717
OK,64,49,980,64,2014-10-02T07:20:00,0,28224102,190717
OK,59,53,980,59,2014-10-02T07:25:00,6,28224457,190717
OK,47,67,980,47,2014-10-02T07:30:00,3,28224906,190717
OK,47,67,980,47,2014-10-02T07:35:00,7,28225355,190717
OK,59,53,980,59,2014-10-02T07:40:00,1,28225677,190717
OK,50,63,980,50,2014-10-02T07:50:00,5,28226567,190717
OK,71,44,980,71,2014-10-02T07:55:00,8,28227016,190717
OK,74,42,980,74,2014-10-02T08:00:00,5,28227431,190717
OK,57,55,980,57,2014-10-02T08:05:00,11,28227880,190717
OK,67,47,980,67,2014-10-02T08:10:00,6,28228239,190717
OK,54,58,980,54,2014-10-02T08:20:00,0,28229098,190717
OK,69,46,980,69,2014-10-02T08:25:00,11,28229547,190717
OK,61,52,980,61,2014-10-02T08:30:00,4,28229897,190717
OK,69,46,980,69,2014-10-02T08:35:00,5,28230346,190717
OK,68,46,980,68,2014-10-02T08:40:00,4,28230712,190717
OK,70,45,980,70,2014-10-02T08:45:00,0,28231161,190717
OK,51,62,980,51,2014-10-02T08:50:00,7,28231584,190717
OK,73,43,980,73,2014-10-02T08:55:00,2,28232033,190717
OK,64,49,980,64,2014-10-02T09:00:00,4,28232375,190717
OK,42,75,980,42,2014-10-02T09:10:00,0,28232824,190717
OK,56,56,980,56,2014-10-02T09:15:00,8,28233273,190717
OK,47,67,980,47,2014-10-02T09:20:00,1,28233697,190717
OK,62,51,980,62,2014-10-02T09:25:00,5,28234146,190717
OK,71,44,980,71,2014-10-02T09:30:00,3,28234479,190717
OK,63,50,980,63,2014-10-02T09:40:00,3,28235355,190717
OK,57,55,980,57,2014-10-02T09:45:00,18,28235804,190717
OK,80,39,980,80,2014-10-02T09:50:00,5,28236247,190717
OK,56,56,980,56,2014-10-02T09:55:00,9,28236694,190717
OK,75,42,980,75,2014-10-02T10:00:00,3,28237097,190717
OK,88,36,980,88,2014-10-02T10:05:00,0,28237545,190717
OK,49,64,980,49,2014-10-02T10:10:00,14,28237993,190717
OK,53,59,980,53,2014-10-02T10:15:00,13,28238440,190717
OK,61,52,980,61,2014-10-02T10:20:00,16,28238881,190717
OK,47,67,980,47,2014-10-02T10:25:00,7,28239330,190717
OK,41,77,980,41,2014-10-02T10:30:00,1,28239760,190717
OK,55,57,980,55,2014-10-02T10:35:00,14,28240209,190717
OK,68,46,980,68,2014-10-02T10:40:00,16,28240653,190717
OK,67,47,980,67,2014-10-02T10:45:00,14,28241102,190717
OK,40,79,980,40,2014-10-02T10:50:00,2,28241534,190717
OK,53,59,980,53,2014-10-02T10:55:00,13,28241982,190717
OK,52,61,980,52,2014-10-02T11:00:00,4,28242378,190717
OK,45,70,980,45,2014-10-02T11:05:00,0,28242827,190717
OK,59,53,980,59,2014-10-02T11:10:00,12,28243276,190717
OK,64,49,980,64,2014-10-02T11:15:00,11,28243602,190717
OK,60,52,980,60,2014-10-02T11:20:00,13,28244039,190717
OK,58,54,980,58,2014-10-02T11:25:00,7,28244468,190717
OK,75,42,980,75,2014-10-02T11:30:00,0,28244917,190717
OK,59,53,980,59,2014-10-02T11:35:00,14,28245366,190717
OK,46,69,980,46,2014-10-02T11:40:00,3,28245772,190717
OK,44,72,980,44,2014-10-02T11:45:00,0,28246221,190717
OK,59,53,980,59,2014-10-02T11:50:00,21,28246658,190717
OK,52,61,980,52,2014-10-02T11:55:00,18,28247107,190717
OK,74,42,980,74,2014-10-02T12:00:00,18,28247553,190717
OK,85,37,980,85,2014-10-02T12:05:00,12,28247983,190717
OK,46,69,980,46,2014-10-02T12:10:00,0,28248432,190717
OK,64,49,980,64,2014-10-02T12:15:00,19,28248879,190717
OK,61,52,980,61,2014-10-02T12:20:00,10,28249307,190717
OK,55,57,980,55,2014-10-02T12:25:00,19,28249751,190717
OK,50,63,980,50,2014-10-02T12:30:00,7,28250170,190717
OK,73,43,980,73,2014-10-02T12:35:00,25,28250568,190717
OK,73,43,980,73,2014-10-02T13:20:00,24,28251893,190717
OK,64,49,980,64,2014-10-02T13:30:00,17,28252477,190717
OK,82,38,980,82,2014-10-02T13:35:00,8,28252919,190717
OK,56,56,980,56,2014-10-02T13:40:00,0,28253336,190717
OK,74,42,980,74,2014-10-02T13:45:00,30,28253785,190717
OK,75,42,980,75,2014-10-02T13:50:00,18,28254190,190717
OK,62,51,980,62,2014-10-02T13:55:00,24,28254511,190717
OK,63,50,980,63,2014-10-02T14:10:00,19,28255088,190717
OK,71,44,980,71,2014-10-02T14:15:00,37,28255537,190717
OK,76,41,980,76,2014-10-02T14:20:00,25,28255965,190717
OK,76,41,980,76,2014-10-02T14:25:00,5,28256414,190717
OK,68,46,980,68,2014-10-02T14:30:00,34,28256842,190717
OK,63,50,980,63,2014-10-02T14:35:00,26,28257291,190717
OK,50,63,980,50,2014-10-02T14:40:00,14,28257732,190717
OK,66,48,980,66,2014-10-02T14:45:00,30,28258180,190717
OK,62,51,980,62,2014-10-02T14:50:00,35,28258613,190717
OK,62,51,980,62,2014-10-02T14:55:00,26,28259059,190717
OK,65,48,980,65,2014-10-02T15:00:00,21,28259508,190717
OK,60,52,980,60,2014-10-02T15:05:00,16,28259955,190717
OK,61,52,980,61,2014-10-02T15:10:00,11,28260388,190717
OK,60,52,980,60,2014-10-02T15:15:00,20,28260837,190717
OK,69,46,980,69,2014-10-02T15:20:00,10,28261277,190717
OK,47,67,980,47,2014-10-02T15:25:00,18,28261659,190717
OK,60,52,980,60,2014-10-02T15:30:00,7,28262089,190717
OK,53,59,980,53,2014-10-02T15:40:00,8,28262982,190717
OK,45,70,980,45,2014-10-02T15:45:00,22,28263420,190717
OK,57,55,980,57,2014-10-02T15:50:00,9,28263861,190717
OK,43,73,980,43,2014-10-02T15:55:00,0,28264263,190717
OK,62,51,980,62,2014-10-02T16:00:00,15,28264712,190717
OK,64,49,980,64,2014-10-02T16:05:00,13,28265150,190717
OK,44,72,980,44,2014-10-02T16:10:00,12,28265590,190717
OK,46,69,980,46,2014-10-02T16:15:00,5,28265986,190717
OK,49,64,980,49,2014-10-02T16:20:00,15,28266435,190717